This is the latest recevied weather packets stored in our database for station/object OE6ACM-10. If no packets are shown the sender has not sent any weather packets the latest 10 day(s).
| Time | Temp. | Humidity | Pressure | Rain* | Wind** | Luminosity | Snow |
|---|---|---|---|---|---|---|---|
| 1788013919 | 29.44° C | 100% | 927.9 hPa | - | - | - | - |
| 1788013619 | 30° C | 100% | 928 hPa | - | - | - | - |
| 1788013319 | 30.56° C | 100% | 927.9 hPa | - | - | - | - |
| 1788013019 | 31.11° C | 100% | 928 hPa | - | - | - | - |
| 1788012719 | 32.78° C | 94% | 928 hPa | - | - | - | - |
| 1788012419 | 33.89° C | 83% | 928 hPa | - | - | - | - |
| 1788012119 | 35.56° C | 70% | 928 hPa | - | - | - | - |
| 1788011819 | 35.56° C | 77% | 928 hPa | - | - | - | - |
| 1788011519 | 35.56° C | 71% | 928.1 hPa | - | - | - | - |
| 1788011219 | 35.56° C | 94% | 928.1 hPa | - | - | - | - |
| 1788010919 | 32.78° C | 97% | 928.1 hPa | - | - | - | - |
| 1788010619 | 31.67° C | 100% | 928.2 hPa | - | - | - | - |
| 1788010319 | 31.67° C | 93% | 928.3 hPa | - | - | - | - |
| 1788010019 | 32.78° C | 91% | 928.2 hPa | - | - | - | - |
| 1788009719 | 33.33° C | 93% | 928.2 hPa | - | - | - | - |
| 1788009419 | 33.33° C | 88% | 928.3 hPa | - | - | - | - |
| 1788009119 | 33.33° C | 90% | 928.2 hPa | - | - | - | - |
| 1788008819 | 33.33° C | 89% | 928.2 hPa | - | - | - | - |
| 1788008519 | 33.89° C | 90% | 928.4 hPa | - | - | - | - |
| 1788008219 | 32.78° C | 94% | 928.4 hPa | - | - | - | - |
| 1788007919 | 32.22° C | 100% | 928.5 hPa | - | - | - | - |
| 1788007619 | 31.11° C | 97% | 928.6 hPa | - | - | - | - |
| 1788007319 | 31.67° C | 98% | 928.6 hPa | - | - | - | - |
| 1788007019 | 33.33° C | 100% | 928.5 hPa | - | - | - | - |
| 1788006719 | 31.11° C | 100% | 928.6 hPa | - | - | - | - |
* Rain since midnight (hover to see other rain measurements)
** Current wind speed in m/s (hover to see current wind gust speed)